RH
36 43 42 34 30 30 30 27 22 21 21 22 19 17 15 14 13 15 19 27 34 31 29 31 31 29 31 37 41 44 41 36 35 32 31 30 30 29 29 28 25 21 18 19 18
3 3 4 5 5 8 13 19 23 24 24 22 21 20 16 14 11 10 13 14 19 33 38 42 34 30 34 39 41 44 44 43 36 36 36 34 34 34 32 31 30 28 24 22 19
2 2 2 2 2 2 1 2 4 9 13 19 23 22 14 12 11 15 20 23 26 36 49 39 31 37 37 45 44 42 40 37 39 39 39 39 39 38 37 34 35 34 32 29 26
3 3 3 2 2 2 2 2 1 1 2 5 9 14 15 9 23 27 25 29 36 39 31 33 43 43 46 47 43 45 42 44 44 45 45 45 45 45 44 39 41 40 39 37 35
3 3 3 3 3 3 2 2 2 1 1 2 4 6 8 10 11 18 18 22 23 31 28 44 54 58 56 49 47 45 40 44 48 49 50 52 50 56 43 50 56 55 56 54 50
5 4 4 4 4 4 4 3 2 2 1 2 3 4 5 8 18 15 13 25 31 42 47 50 63 67 65 56 52 44 46 48 51 56 60 60 55 58 38 46 46 46 49 54 59
8 7 7 6 6 5 4 4 4 2 1 2 2 3 4 7 10 12 17 25 46 60 54 62 73 71 62 51 43 47 54 60 56 55 60 55 48 38 39 41 39 37 39 46 54
12 10 10 9 8 8 6 5 5 3 2 2 2 3 5 7 9 15 23 49 51 56 71 78 74 62 44 43 55 64 67 73 52 51 55 49 48 39 38 37 37 36 35 38 44
19 17 15 14 13 11 10 7 6 4 3 2 2 5 9 11 16 29 42 58 68 78 80 63 50 61 70 74 89 72 66 68 70 54 49 47 46 42 38 38 37 38 36 36 34
21 20 20 19 17 15 13 11 8 7 4 4 4 8 18 23 32 60 81 92 86 61 53 71 71 69 69 77 70 62 76 71 63 62 54 52 49 45 45 45 46 45 43 39 38
18 19 18 17 17 17 16 15 11 9 7 5 4 3 6 17 39 69 92 90 65 82 76 68 68 66 76 67 72 65 62 67 66 56 55 51 49 48 51 48 45 44 44 44 44
12 12 14 17 20 19 18 16 13 12 8 6 4 3 7 17 39 64 71 74 82 78 85 81 73 76 73 73 70 70 69 64 63 53 52 58 55 51 43 40 43 46 47 48 47
5 6 9 9 16 21 17 16 15 12 11 8 7 6 12 26 41 51 72 97 92 97 88 77 74 72 78 84 74 70 70 58 55 58 63 54 53 44 45 47 49 53 53 47 54
5 18 42 36 80 58 33 21 20 25 23 11 12 22 22 45 72 69 88 93 99 97 90 73 68 68 69 67 64 64 67 65 64 58 59 54 69 56 49 54 48 58 58 53 48
30 36 29 79 61 95 69 36 65 42 73 18 30 42 54 72 63 67 89 98 94 92 85 74 64 72 76 79 81 63 77 74 64 60 65 71 82 65 50 44 40 41 35 25 18
60 56 54 48 61 98 90 45 100 84 78 33 53 50 58 86 88 84 88 92 87 84 78 75 83 86 84 83 85 81 81 63 61 78 89 77 84 51 54 35 28 34 20 26 38
53 46 48 48 49 91 96 72 98 91 28 54 70 65 85 94 96 92 87 84 83 70 80 73 70 76 79 84 83 78 63 83 89 89 77 68 76 56 53 47 38 28 30 45 46
51 53 56 75 77 96 92 87 96 63 48 86 99 89 100 100 95 88 84 83 88 83 79 74 73 86 79 81 71 66 61 81 85 71 49 66 77 65 34 31 35 27 48 50 20
53 48 64 80 79 97 96 93 95 75 64 84 90 97 99 99 83 86 94 96 82 84 84 88 91 88 89 80 75 72 68 60 67 65 61 52 52 39 35 31 28 39 62 36 6
48 59 78 60 63 95 97 98 85 69 72 70 80 89 98 99 85 83 77 91 93 87 93 92 93 78 82 86 86 86 79 74 69 87 80 38 34 24 25 27 37 61 9 4 22
48 56 93 95 97 96 92 96 79 61 84 79 64 84 86 80 97 83 88 88 97 99 97 91 88 84 83 81 79 73 82 89 94 95 79 54 39 20 24 28 61 41 4 15 69
55 100 96 96 98 82 93 89 81 66 74 82 90 88 88 96 92 92 93 84 100 99 91 85 90 89 97 83 86 84 89 95 94 94 94 65 57 41 21 40 56 63 9 36 87
88 74 90 97 97 79 78 64 82 84 94 95 93 84 93 87 91 87 90 94 97 95 95 91 89 93 82 89 95 96 89 95 95 96 87 73 56 40 22 32 58 64 14 59 93
80 93 87 93 96 96 94 90 88 81 90 90 94 89 95 92 91 92 98 97 96 92 91 93 86 81 71 91 91 96 92 94 96 96 77 80 70 65 68 68 64 74 8 81 96
84 95 96 95 96 93 96 87 86 92 90 88 91 96 94 92 96 96 94 90 91 90 93 95 89 84 80 78 83 85 91 95 98 88 95 75 84 85 80 82 81 43 27 96 98
95 95 94 89 93 94 79 82 88 94 99 84 96 96 96 93 89 89 97 100 94 91 96 99 100 90 82 74 82 89 86 98 98 96 98 94 83 92 89 88 58 9 78 97 96
87 88 96 86 95 96 85 66 80 91 98 95 94 96 97 97 97 95 100 100 97 100 100 99 95 99 93 85 93 86 85 79 80 96 95 99 94 96 90 77 20 44 98 96 96
Wind_Speed
23 23 25 24 23 23 24 25 25 24 24 23 22 23 22 23 25 24 25 23 22 21 20 19 18 17 16 16 15 16 17 19 18 19 19 19 18 19 19 19 20 21 22 23 23
21 22 22 24 25 26 26 27 27 27 27 26 25 23 24 25 25 24 25 25 25 21 20 18 17 16 16 16 16 17 19 15 19 18 19 20 19 20 20 20 22 22 22 24 25
22 22 21 22 23 23 25 26 27 28 28 29 30 28 25 24 24 26 20 18 21 20 18 17 17 17 17 17 18 20 21 21 20 21 21 23 23 24 24 23 24 23 25 26 26
27 28 27 26 25 24 25 25 27 27 27 28 29 29 26 21 15 14 15 16 17 19 22 19 17 16 16 17 18 20 21 20 21 21 23 23 24 26 25 23 27 26 27 27 28
30 31 32 32 32 31 29 28 26 28 28 26 26 28 27 23 19 21 21 23 24 24 21 19 17 16 16 15 16 18 20 19 20 21 22 23 22 26 23 26 27 27 27 28 28
32 33 34 34 35 35 33 32 30 28 28 27 26 26 24 24 21 20 20 18 20 20 19 19 19 17 18 18 19 21 21 19 20 20 24 25 22 27 22 24 26 27 29 30 31
36 36 36 35 35 36 35 34 31 30 29 28 25 24 25 20 19 20 19 19 19 19 19 18 17 17 18 21 21 19 18 17 18 21 27 24 22 22 17 15 18 20 22 24 27
41 40 39 37 36 35 35 34 31 29 29 27 26 25 23 22 19 17 18 19 19 19 18 17 18 22 24 22 20 18 19 15 16 14 14 15 16 18 18 14 17 19 21 22 22
44 43 42 41 39 38 36 35 34 30 29 27 26 24 21 18 16 15 17 17 17 16 17 20 21 17 14 12 10 13 11 11 12 16 14 16 18 18 18 24 27 27 28 27 28
46 45 45 43 42 41 38 36 34 33 31 26 25 14 14 16 14 13 14 14 15 17 17 14 12 11 9 11 8 8 8 11 13 13 16 23 29 25 23 26 29 31 31 29 27
49 49 47 45 42 41 40 36 35 34 28 27 24 22 21 19 16 16 16 18 18 16 12 11 12 11 8 11 15 15 14 15 16 20 25 26 29 26 28 29 31 31 32 30 30
54 54 52 51 46 43 38 34 33 31 34 29 27 25 20 21 21 20 21 17 15 12 11 11 13 13 14 16 16 15 14 14 17 17 20 27 32 30 28 25 24 20 23 28 34
56 55 53 54 48 43 38 31 28 28 27 32 26 22 17 16 18 17 15 15 13 12 11 11 9 10 11 11 12 14 16 12 14 19 22 22 22 13 11 13 19 21 16 13 15
43 40 40 40 37 34 32 29 24 22 14 21 21 15 14 12 12 14 14 14 11 11 11 11 14 11 8 7 8 9 12 12 13 11 7 9 8 10 18 11 7 8 10 9 8
33 32 32 34 33 30 21 20 16 14 5 10 14 12 14 15 8 11 14 16 14 13 11 8 10 11 13 14 11 9 11 12 14 12 13 8 7 5 5 7 2 3 3 4 10
27 29 32 29 28 25 14 16 15 8 8 10 14 16 18 17 13 9 11 12 12 14 15 15 15 14 14 11 10 10 11 13 12 6 4 6 6 4 4 4 3 4 4 13 20
27 31 30 27 27 26 14 14 14 10 6 7 12 18 19 18 16 14 13 14 11 5 7 8 12 15 14 11 11 10 7 3 4 4 2 4 5 11 7 8 6 4 12 20 26
29 38 33 26 16 15 11 19 13 12 16 4 7 15 16 16 16 15 14 14 14 13 9 6 5 7 7 11 5 7 7 3 4 2 2 4 8 4 4 4 4 8 18 26 24
31 36 23 5 9 13 18 21 8 11 10 7 9 12 12 15 11 11 10 11 11 12 7 5 4 7 7 8 7 4 6 6 2 5 4 6 6 12 12 7 5 15 26 27 19
28 28 15 13 14 14 17 18 12 19 12 9 11 9 8 11 11 10 10 8 10 10 10 5 3 7 8 9 11 11 6 1 4 3 4 5 7 6 6 2 11 25 23 17 17
25 26 11 7 8 11 15 18 18 18 13 11 15 10 8 10 12 10 6 7 10 7 7 5 6 4 5 7 7 8 9 9 6 4 3 4 3 6 7 4 16 23 22 17 17
23 19 10 2 8 13 17 14 17 16 16 19 12 11 9 10 9 12 9 8 9 8 6 7 5 6 6 10 11 12 8 12 6 5 6 3 8 9 10 5 21 27 24 20 20
22 18 12 12 8 13 13 15 14 11 11 8 12 13 16 13 7 12 9 10 7 6 3 4 4 3 3 4 10 10 12 13 15 10 11 4 4 6 14 14 29 28 23 20 18
21 19 19 14 11 10 11 11 12 13 12 13 13 15 16 15 14 9 9 9 8 8 9 9 11 11 9 6 9 10 14 16 14 9 10 20 20 19 23 29 26 26 20 19 17
17 18 20 14 4 8 9 11 10 12 16 11 12 11 11 11 13 12 11 11 12 11 10 9 9 13 17 18 19 20 22 22 25 26 17 12 20 19 20 26 21 19 17 17 14
15 18 17 20 15 13 6 16 17 15 14 11 15 11 11 11 11 10 14 11 10 9 7 9 8 14 24 14 13 18 18 18 23 24 31 32 37 27 12 16 14 13 14 13 12
13 14 17 18 12 13 12 10 12 9 11 13 11 10 10 13 13 13 12 14 12 10 10 12 9 5 5 5 11 14 5 5 11 18 22 26 18 15 9 12 11 11 11 9 9
Wind_Direction
323 321 318 316 317 315 313 311 311 308 304 299 298 298 296 295 294 292 288 285 281 275 271 270 269 269 269 264 259 254 245 253 255 266 264 270 266 262 260 258 256 256 256 258 258
330 326 325 320 318 315 311 308 306 305 303 301 298 294 295 294 294 289 286 283 277 267 264 267 268 267 266 265 260 250 251 255 266 265 264 266 266 268 265 263 261 259 259 258 258
332 330 329 327 325 323 320 315 308 303 301 299 297 295 296 296 294 292 285 273 267 261 262 269 271 269 264 261 259 258 256 264 263 264 265 266 267 268 268 269 267 265 260 259 259
327 327 326 324 324 323 320 318 317 313 306 302 297 293 293 295 290 284 279 269 259 258 269 273 267 267 266 264 263 260 264 266 267 266 265 266 266 267 267 269 268 265 264 264 262
315 315 316 318 318 320 320 320 320 317 313 305 299 295 292 287 284 276 271 268 265 265 264 264 265 266 266 265 269 268 270 269 267 267 266 267 269 271 271 268 269 268 265 262 260
312 311 310 308 311 312 316 318 319 320 315 310 304 299 291 288 280 278 274 262 259 257 258 265 264 260 263 270 272 274 272 270 268 270 273 273 274 272 280 272 267 265 262 260 258
310 309 309 310 309 309 310 311 316 318 317 311 307 301 291 285 275 273 267 259 254 259 264 264 262 263 272 281 277 273 272 273 274 272 272 275 273 276 267 270 269 268 265 261 258
308 307 307 307 307 307 306 307 310 313 314 313 308 301 293 284 275 262 257 254 257 264 265 265 265 271 274 271 266 270 276 277 276 266 263 270 267 274 277 271 273 273 272 268 265
304 304 303 303 303 303 304 304 305 308 309 309 306 301 290 284 271 254 247 249 258 260 263 269 272 270 265 253 260 258 254 256 273 267 266 267 270 276 276 283 277 275 271 267 263
303 301 299 299 298 297 299 300 302 304 306 304 299 300 287 283 268 249 240 244 257 266 268 260 256 253 247 224 236 231 237 254 258 274 274 278 281 285 283 278 274 271 271 267 264
297 294 292 289 288 288 290 294 297 301 300 301 293 290 284 276 259 247 247 261 267 260 250 250 250 241 227 233 238 254 260 270 275 284 285 285 285 288 286 278 272 266 265 262 259
292 289 286 284 281 279 279 283 286 288 292 292 290 284 271 261 254 252 260 257 250 243 247 249 254 252 253 254 254 260 267 276 287 283 289 292 291 293 284 272 271 270 266 262 257
292 290 287 286 284 280 277 275 275 278 285 287 284 277 263 251 249 244 239 236 233 235 247 245 253 252 257 260 260 264 266 270 277 289 295 301 303 289 262 264 270 270 270 265 255
301 300 295 286 292 285 278 274 269 275 282 273 268 255 245 223 225 224 222 218 229 244 251 267 258 251 246 250 259 262 276 274 280 299 282 290 289 266 273 274 274 258 252 264 274
313 311 296 282 280 278 269 262 254 268 271 242 220 220 208 194 200 206 213 222 246 250 254 262 257 258 265 263 266 253 270 276 281 279 285 246 239 252 256 269 246 242 264 298 305
324 324 315 300 268 273 252 245 226 215 243 218 196 197 191 197 203 206 213 228 247 259 264 261 260 259 256 260 246 252 275 283 276 246 243 216 213 233 227 219 227 261 293 310 304
332 325 317 296 270 273 224 210 211 211 227 225 203 192 190 196 206 216 230 243 235 236 240 255 254 251 251 252 250 243 254 242 223 204 287 198 239 249 245 257 264 259 313 309 308
328 334 317 289 250 246 204 205 215 227 233 234 211 193 189 202 217 233 237 233 235 232 251 236 226 215 217 211 211 211 204 265 280 271 356 251 239 245 240 211 237 292 309 316 310
320 325 324 258 228 224 198 215 253 231 254 210 207 198 211 213 219 214 217 218 222 224 211 210 223 212 221 230 226 231 213 233 251 286 269 237 261 266 252 238 281 312 320 316 306
326 334 329 269 259 208 199 222 240 236 238 218 213 208 214 210 208 200 211 211 211 216 210 220 238 240 244 242 234 225 229 209 203 252 250 232 257 241 170 149 333 327 326 315 306
324 332 335 277 184 191 218 229 241 238 236 241 237 229 214 221 206 206 205 203 205 190 198 226 222 243 237 220 219 227 227 224 214 216 278 293 202 212 183 320 341 340 331 320 315
326 338 327 264 190 226 226 240 243 261 242 248 240 224 226 216 212 222 217 223 201 207 237 239 230 241 236 253 249 239 229 228 218 185 231 276 275 235 203 311 337 338 333 325 319
329 329 315 255 213 240 247 246 256 254 263 249 241 244 225 220 210 203 216 217 207 234 239 211 233 286 273 260 244 236 245 240 228 242 227 229 265 249 229 286 325 327 327 321 316
322 335 334 277 253 243 245 258 252 268 267 270 243 246 218 218 215 198 207 214 231 242 261 265 254 236 256 273 271 255 262 269 245 223 246 237 259 274 287 291 308 315 321 316 316
316 323 326 315 313 291 241 261 272 269 258 260 247 223 217 211 209 215 206 227 243 249 253 265 266 270 268 268 271 270 266 263 252 250 240 264 268 277 287 297 299 308 312 311 317
307 323 329 327 312 283 285 263 263 267 262 260 229 221 217 213 211 224 223 227 243 257 243 261 274 294 295 287 263 263 264 257 263 261 256 264 269 281 283 288 298 307 307 312 324
305 306 329 325 310 306 264 286 264 268 249 240 239 230 212 223 229 242 223 235 245 256 273 273 273 291 276 286 295 288 217 252 275 269 261 250 271 280 278 291 303 302 308 317 333